Theta_e
323 323 321 320 320 319 322 328 332 331 332 335 335 332 333 336 330 328 340 347 345 343 343 343 342 342 341 342 342 342 344 344 344 344 344 344 344 344 345 346 346 347 347 348 348 349 349 349 349 349 348 347 347 347 347 346 345 345 345 345 345 344 343 343 344 344 344 344 345 345 347 348 348 347 346 343 340 339 338 338 339 339 339 338 335 333 332
321 321 321 322 321 320 322 327 329 331 332 335 338 337 336 338 337 336 341 346 345 343 342 342 341 341 341 341 341 341 342 343 343 343 343 342 343 343 344 344 345 346 347 348 348 348 348 349 349 349 348 348 348 348 348 347 347 347 346 346 346 345 345 345 345 345 344 344 345 344 346 348 349 348 348 347 343 340 338 337 336 334 334 334 332 331 330
320 320 322 324 323 322 323 325 328 331 333 334 337 337 336 338 340 340 341 344 345 343 342 341 340 340 340 339 339 340 341 342 342 342 342 341 341 341 342 342 343 344 345 346 346 346 346 346 347 348 348 349 348 348 348 348 348 348 348 348 347 346 347 347 347 346 346 347 346 345 346 348 349 349 350 349 347 343 340 339 337 335 335 335 334 332 330
319 319 321 324 325 322 321 325 330 332 333 334 334 335 335 336 339 341 341 343 344 343 341 340 339 339 339 339 339 339 340 341 342 341 340 339 339 339 340 341 341 342 343 344 344 344 344 345 346 346 346 347 347 346 347 347 348 348 348 348 348 347 348 347 346 346 347 348 348 349 349 349 349 349 349 350 349 346 342 341 340 339 339 338 338 337 335
319 319 321 324 326 323 321 325 330 333 334 334 333 334 334 334 337 339 340 341 342 341 340 338 338 338 338 338 338 338 339 340 340 339 338 337 337 337 338 339 339 340 340 341 341 342 342 343 344 345 345 346 346 346 346 347 347 347 348 348 348 348 348 349 348 348 348 349 350 351 351 351 350 350 349 349 349 347 345 345 345 344 344 343 343 342 340
319 321 322 324 326 326 325 326 329 332 334 334 335 334 333 333 335 335 337 339 339 339 338 337 337 336 336 336 336 336 337 338 337 336 335 335 334 334 334 335 336 337 338 338 339 339 340 341 341 342 343 344 344 345 346 346 346 347 347 347 347 348 348 349 349 349 349 350 350 351 351 351 351 352 351 350 350 350 349 349 349 348 348 348 347 347 346
320 322 322 324 326 325 324 324 327 331 331 330 332 333 332 332 333 335 337 339 338 338 338 336 334 332 331 331 332 333 335 336 336 335 333 332 331 330 330 331 332 333 334 334 335 336 337 337 338 339 340 341 342 342 343 344 344 345 346 346 347 347 347 348 348 349 348 349 349 350 350 350 351 352 352 352 351 351 350 350 350 350 350 351 350 350 349
319 321 322 323 324 322 320 320 322 326 326 325 328 332 333 331 332 335 338 338 336 335 333 331 329 328 328 328 328 330 332 333 335 335 333 332 330 329 327 327 326 327 327 327 329 330 330 331 332 334 335 337 339 340 340 340 340 341 342 343 344 344 345 346 346 347 347 347 348 348 349 349 349 350 351 352 351 351 351 350 350 350 351 351 351 351 350
319 320 321 321 321 321 321 320 320 321 321 321 325 331 333 331 332 336 336 333 332 331 328 327 326 326 327 326 324 326 329 331 334 335 333 332 331 329 328 326 324 323 321 321 322 322 322 323 325 326 328 330 333 335 336 336 335 337 339 339 339 340 341 343 344 344 344 344 345 346 347 348 349 349 350 350 350 350 350 349 349 349 350 350 350 350 350
318 319 320 321 321 322 321 319 319 320 319 319 323 330 332 331 333 335 334 330 329 328 326 326 327 327 328 326 323 324 327 330 334 335 334 334 333 331 328 326 323 320 318 317 318 317 316 317 319 321 322 322 325 327 329 330 331 332 334 334 334 335 336 336 337 338 338 339 341 343 344 346 347 348 349 350 350 351 350 349 349 348 349 350 350 349 349
319 318 319 320 321 321 321 319 320 321 319 320 323 326 328 331 333 334 333 330 329 328 326 326 327 329 330 327 322 321 324 328 333 334 334 334 333 330 327 324 321 319 318 317 317 316 315 315 315 316 317 317 318 320 323 325 325 326 328 328 328 329 330 331 330 329 330 332 334 336 339 342 345 347 347 348 349 349 349 350 350 349 350 350 350 350 350
320 319 318 319 321 321 321 321 321 321 319 320 323 323 325 330 333 333 332 331 329 329 328 328 329 331 330 326 323 322 324 327 330 332 332 331 329 326 324 322 320 320 319 317 317 316 316 315 314 314 313 313 314 315 318 319 319 320 322 323 322 322 323 325 325 325 326 326 326 327 330 334 339 343 345 345 346 347 347 347 349 350 350 350 351 351 351
319 318 318 319 320 321 321 322 322 321 319 321 323 322 322 327 332 333 332 331 330 329 329 329 330 329 329 327 325 326 327 327 327 328 328 326 325 323 322 321 320 319 318 317 318 317 316 315 315 314 314 314 314 313 313 314 314 315 317 319 320 319 318 317 317 319 320 320 319 319 320 323 326 330 334 338 341 344 344 344 344 346 347 348 349 350 350
316 317 318 318 318 319 320 321 321 320 320 322 324 322 320 324 330 333 332 331 331 329 329 330 329 327 326 326 325 325 327 326 325 324 324 323 323 322 321 321 319 318 318 318 318 316 314 314 313 313 313 314 314 313 312 312 312 312 312 313 314 315 315 314 313 313 314 314 315 316 316 316 318 321 328 333 335 338 339 339 339 340 341 343 344 345 345
316 316 315 317 319 319 319 321 322 322 322 323 321 320 320 325 329 331 331 331 330 330 329 328 327 324 324 324 324 323 324 326 325 324 323 322 322 321 320 318 317 318 318 317 314 312 311 311 310 311 311 312 312 313 313 313 312 311 311 311 311 311 311 312 311 311 311 312 314 316 317 318 321 325 330 333 334 335 336 337 337 337 338 340 340 341 342
317 317 316 317 320 320 319 320 322 322 320 319 318 318 321 326 329 329 329 329 328 329 328 327 325 324 323 323 323 323 323 325 325 324 324 323 321 319 318 317 317 317 316 314 312 311 311 310 309 309 310 310 311 311 312 312 312 311 311 310 310 309 309 310 310 310 311 312 314 316 318 320 323 326 330 332 334 335 336 337 338 337 338 340 340 340 340
318 319 319 319 320 320 318 318 319 318 317 317 317 317 319 325 329 329 328 328 327 326 326 325 324 323 322 323 323 323 323 324 323 323 324 322 320 318 318 318 317 315 313 313 312 312 311 310 309 309 309 310 310 311 311 311 311 311 310 310 309 309 309 309 309 309 309 311 312 314 317 318 321 324 328 331 333 334 335 336 336 336 336 338 340 338 336
318 317 318 320 320 320 318 317 316 316 316 317 319 319 319 323 328 328 327 327 326 325 325 324 322 320 321 322 322 322 322 323 322 322 321 319 318 318 318 319 318 315 313 313 313 312 310 310 310 310 310 310 310 310 310 310 310 310 310 310 309 309 308 308 309 309 309 309 310 311 314 317 320 324 328 331 332 334 334 335 336 337 336 337 339 337 335
317 317 320 321 320 319 318 317 316 316 317 317 319 320 320 322 325 328 327 326 325 324 324 323 321 319 320 321 321 321 321 321 320 319 319 318 318 318 318 317 317 315 314 313 312 311 311 311 310 310 310 310 310 310 310 310 310 310 309 309 309 309 309 308 308 308 308 308 309 309 311 313 317 321 325 328 331 332 333 334 335 336 336 336 336 335 334
318 319 320 319 318 318 317 317 317 316 316 317 318 320 321 321 323 325 327 326 325 324 323 322 321 320 319 320 320 320 320 320 318 318 319 320 320 319 317 316 315 314 313 312 312 311 311 311 310 309 309 309 309 309 310 310 310 309 309 309 309 309 308 308 308 308 308 308 308 308 309 309 311 313 317 320 324 327 329 330 331 332 333 334 334 333 332
320 319 319 319 319 320 319 317 317 316 316 316 317 318 319 321 321 323 325 326 325 324 323 322 321 321 321 321 321 320 320 319 319 318 319 320 319 318 317 315 314 314 312 311 311 311 311 310 309 308 308 308 309 309 309 310 310 310 309 309 309 309 309 308 308 307 307 307 307 307 308 308 308 309 310 312 314 317 320 322 325 327 328 329 330 330 329
320 320 320 320 321 321 320 318 317 317 316 316 317 317 318 319 320 321 323 324 324 324 323 322 321 322 322 322 321 321 320 319 319 319 318 318 317 317 316 315 314 313 312 311 312 311 310 309 308 307 307 308 309 309 309 310 310 310 310 309 309 310 311 310 309 308 307 307 307 306 307 307 307 307 308 307 308 309 310 312 314 317 320 323 325 326 327
320 320 319 319 320 321 320 318 318 318 317 317 317 317 316 317 317 318 320 322 322 322 322 321 321 322 322 322 321 321 320 320 319 319 318 318 318 318 316 315 314 313 312 312 312 311 310 309 307 307 307 308 308 308 308 309 309 310 310 309 309 309 310 310 309 308 308 307 307 307 307 307 307 307 308 308 308 307 307 308 308 309 312 314 316 319 322
321 320 319 319 320 320 319 318 318 319 318 318 318 317 317 317 316 316 317 319 319 320 321 321 321 321 321 321 321 321 320 320 319 319 318 319 319 318 316 315 314 313 312 312 312 311 310 308 306 306 307 307 307 308 308 308 309 309 309 309 308 308 308 308 307 307 308 308 308 308 308 308 308 308 308 309 309 309 309 309 309 308 308 309 310 311 313
320 320 319 319 320 320 319 319 319 319 319 319 318 318 318 318 317 317 317 317 316 317 318 319 320 320 320 320 321 321 320 320 319 319 318 318 318 317 316 314 314 312 311 312 312 311 310 308 306 305 306 306 307 307 307 307 308 308 308 308 307 307 307 307 307 307 307 307 307 308 308 309 309 309 310 310 310 310 310 310 310 311 310 309 309 309 309
319 319 319 319 319 319 319 319 319 318 318 318 318 318 318 318 317 317 317 317 317 316 316 317 318 319 319 320 319 319 319 319 319 318 318 319 318 317 315 314 313 312 311 311 312 311 310 309 306 305 305 306 306 306 307 307 307 307 307 307 307 306 306 306 306 306 306 306 307 307 307 308 309 309 310 310 311 312 313 311 311 311 312 312 312 311 310
318 318 318 319 319 319 318 318 318 318 318 317 317 317 317 317 317 317 317 317 317 317 316 316 316 317 318 319 319 319 318 318 318 318 318 318 317 316 315 314 313 312 311 311 311 311 311 310 308 306 306 306 305 305 306 306 306 306 306 306 306 306 306 306 306 306 305 305 305 306 306 307 307 308 309 310 312 315 316 314 312 311 312 312 313 313 312
318 318 318 318 319 318 318 318 317 317 317 317 316 316 316 316 316 316 316 317 317 317 317 317 316 316 316 317 317 318 318 318 318 318 318 318 317 316 314 313 312 312 311 311 311 311 311 310 309 307 307 306 306 306 306 306 306 306 306 306 306 306 306 306 306 306 306 306 306 306 306 306 306 307 308 310 312 314 315 314 312 312 311 311 312 313 313
318 318 317 317 317 317 317 317 317 316 316 315 314 314 314 314 314 314 314 315 316 317 317 317 316 316 316 316 316 316 317 318 318 318 317 317 316 315 314 313 312 311 311 311 311 310 310 310 309 308 307 307 307 306 306 306 306 306 306 306 306 306 306 306 306 306 306 306 306 306 306 307 308 308 309 310 311 312 313 312 311 311 312 312 312 312 313
318 317 317 317 316 316 316 316 315 314 314 313 312 312 311 311 311 312 312 313 314 315 316 317 317 317 316 316 316 315 315 316 316 317 317 316 315 314 313 312 312 311 311 311 311 310 310 310 309 308 308 307 307 306 306 306 306 306 305 305 305 305 305 306 306 306 306 306 306 306 308 309 309 310 310 310 310 310 309 310 310 311 312 312 312 312 313
317 316 316 316 316 315 315 314 313 312 312 311 310 310 310 310 310 310 310 310 311 312 313 314 315 316 317 317 317 316 315 315 315 315 316 316 315 313 313 313 312 312 311 311 311 310 310 309 309 308 308 308 307 306 306 306 305 305 304 304 304 304 305 305 305 306 305 305 305 306 308 309 309 309 309 309 307 306 308 309 311 311 312 312 312 312 313
316 316 315 315 314 314 313 312 311 311 310 310 309 309 309 309 308 308 308 308 309 310 311 312 313 314 315 316 316 316 316 316 315 315 315 315 314 314 313 312 312 312 311 311 310 310 310 309 309 309 308 307 307 306 305 305 305 304 304 304 304 304 305 305 305 305 305 304 305 306 306 307 308 307 307 306 305 307 309 310 310 310 311 311 311 311 312
316 315 315 314 313 312 312 311 311 311 311 310 310 309 309 308 308 308 308 307 308 308 309 310 311 312 313 314 315 316 316 316 316 316 316 315 314 314 313 312 311 311 311 310 310 310 309 309 309 308 307 307 306 305 305 305 304 304 304 304 305 305 305 305 304 304 304 305 305 305 305 305 306 305 305 305 307 308 309 309 309 309 309 309 310 310 309
315 315 314 313 312 312 312 312 312 312 311 310 310 309 309 309 308 308 308 308 308 308 308 309 310 311 312 313 314 315 316 316 316 317 316 315 314 313 312 312 311 311 311 310 310 310 309 309 308 308 307 306 306 305 305 304 304 304 305 304 304 304 304 304 304 304 304 305 305 305 305 306 306 306 307 308 308 308 308 308 308 308 308 308 308 308 308
313 313 313 313 312 312 312 312 312 311 310 310 309 308 308 308 307 308 308 308 309 309 309 309 310 311 312 313 313 314 315 315 316 316 316 315 314 312 312 311 311 310 310 310 310 309 309 308 307 307 306 306 305 305 304 304 304 304 304 303 303 303 303 303 303 303 304 304 305 305 305 306 307 307 307 307 307 307 307 306 306 306 306 307 308 308 309
313 313 313 313 313 313 312 312 311 310 310 309 309 308 308 307 307 307 307 308 309 309 309 309 310 312 313 313 314 314 315 315 316 315 314 313 313 312 311 311 310 310 310 310 310 309 308 307 307 306 306 305 305 304 304 304 304 303 303 302 302 302 302 303 303 303 304 304 304 305 305 305 305 305 305 304 305 305 305 304 304 305 305 306 307 307 308
313 313 313 313 312 312 312 311 311 310 309 309 309 308 308 308 307 307 307 308 309 309 309 309 311 313 314 314 314 315 315 315 315 314 313 312 312 312 311 310 310 310 310 310 309 308 308 307 306 306 305 304 304 304 303 303 303 302 301 301 300 301 302 302 303 303 303 303 303 303 303 303 302 302 302 302 302 303 303 303 304 304 304 304 304 305 306
313 312 312 311 311 310 310 309 309 309 308 308 308 308 308 308 308 308 308 308 309 309 309 309 311 313 314 315 315 315 315 314 313 312 312 311 311 311 310 310 310 310 310 309 309 308 307 306 306 305 304 304 303 303 302 301 301 300 300 300 300 301 301 301 301 301 301 301 301 301 301 301 300 300 300 300 301 301 302 302 302 302 302 301 301 302 303
311 310 309 308 307 307 307 307 307 307 307 307 307 307 308 308 308 308 308 308 309 309 309 310 311 313 313 314 314 314 314 313 312 311 311 311 311 311 310 310 310 309 309 308 307 307 306 305 305 304 303 303 302 301 300 300 299 299 299 299 300 300 300 300 300 300 300 300 300 300 300 299 299 299 299 300 300 300 300 299 299 299 299 299 300 301 302
307 306 306 306 306 306 306 306 306 306 306 306 307 307 307 308 308 308 308 309 308 308 309 310 311 312 313 313 313 313 312 311 311 310 310 310 310 310 310 309 308 308 307 307 306 306 305 304 303 302 301 301 300 299 299 299 299 298 299 299 299 299 299 299 298 299 299 299 298 298 298 298 298 298 298 298 298 298 298 297 297 297 298 298 299 300 300
306 306 306 306 306 306 306 307 307 307 307 307 307 307 307 308 308 308 308 308 309 308 309 310 311 312 312 312 312 311 311 311 310 310 310 310 310 309 309 308 307 306 306 306 305 304 303 302 301 300 299 299 299 298 298 298 298 298 298 298 298 297 297 297 297 297 297 297 297 297 297 297 297 297 297 297 297 297 296 296 296 296 297 298 298 298 298
306 306 306 306 306 306 307 307 307 307 307 307 307 307 307 308 308 308 308 308 309 309 309 310 311 311 311 311 311 310 310 310 310 310 309 309 308 308 308 307 306 306 305 304 303 302 301 300 299 299 298 298 298 297 297 297 297 297 297 297 297 297 296 296 296 296 296 296 296 296 296 296 296 296 296 296 296 296 295 295 295 295 296 297 297 297 296
306 306 306 307 307 307 307 307 307 307 307 307 307 307 307 308 308 308 308 309 309 309 309 310 310 310 310 310 309 309 309 309 309 309 308 307 307 306 306 305 305 304 303 302 301 300 299 298 298 298 297 297 297 296 296 296 296 296 296 296 296 296 296 295 295 295 295 295 295 295 295 295 295 295 295 295 295 295 294 294 294 295 295 295 295 295 295
306 307 307 307 307 307 307 307 307 307 307 307 307 307 307 307 308 308 309 309 309 309 309 310 310 310 309 309 309 309 308 308 308 308 307 306 305 304 304 303 303 302 301 300 299 298 297 298 297 297 296 296 296 296 295 295 295 295 296 296 296 295 295 295 295 294 294 294 294 294 294 293 294 294 294 294 294 294 294 293 294 294 294 294 294 294 294
307 307 307 307 307 307 306 306 306 306 307 307 307 307 307 307 308 308 309 309 309 309 309 309 309 309 309 308 308 307 308 308 307 307 307 305 304 302 302 302 301 300 299 298 297 297 298 297 297 296 296 296 296 296 295 295 295 295 296 296 296 295 295 295 295 294 294 294 294 294 294 293 293 293 293 293 293 293 293 293 293 294 294 293 293 293 293
306 306 306 306 306 306 306 306 306 306 306 306 306 307 307 306 307 307 308 308 308 308 308 308 308 308 308 307 306 306 306 305 304 304 304 304 303 302 301 300 299 298 297 297 298 298 298 297 296 296 296 296 296 295 295 295 295 295 295 295 295 295 295 295 295 294 294 294 294 294 294 293 293 293 293 293 293 293 293 293 293 293 293 293 293 293 293
306 306 306 306 306 306 306 306 306 306 306 306 306 306 307 307 307 307 307 307 307 307 307 306 306 307 306 306 305 305 304 303 302 302 301 301 300 299 299 298 298 298 298 298 298 299 298 297 296 296 296 296 296 295 295 295 295 295 295 295 295 295 295 295 294 294 294 294 294 294 294 294 294 294 294 294 294 293 293 293 293 292 292 292 292 292 292
306 306 306 306 306 306 306 306 306 306 306 306 306 306 306 306 307 307 306 305 306 306 306 305 305 304 304 304 303 303 302 301 301 301 300 299 299 299 299 299 298 298 298 298 297 297 297 297 296 296 296 296 295 295 295 295 295 295 295 295 295 295 295 295 295 294 294 294 294 294 294 294 294 294 293 293 293 293 293 292 292 292 292 292 292 291 291
305 306 306 306 306 306 306 306 306 306 306 306 306 306 306 306 306 306 305 305 305 305 305 304 302 302 302 302 301 301 301 300 300 299 299 299 299 299 299 299 298 298 298 298 298 297 297 296 296 296 296 295 295 295 295 295 295 295 295 295 295 295 295 295 295 295 295 295 295 295 294 294 294 294 293 293 293 293 292 292 292 292 292 292 292 291 291
305 305 305 305 305 306 306 306 306 306 306 306 306 306 306 305 305 305 305 304 304 304 303 302 301 301 301 301 301 300 300 300 299 299 299 299 299 300 300 299 299 299 298 298 298 298 297 296 296 296 295 295 295 295 295 295 295 295 295 295 295 295 295 295 295 295 295 295 295 295 294 294 294 294 294 294 294 293 293 292 292 292 292 292 292 291 291
305 305 304 304 304 305 306 306 306 306 306 306 306 306 305 305 305 305 304 304 303 302 301 301 301 301 301 301 301 300 300 299 299 299 299 299 299 300 300 300 300 300 299 298 297 297 297 297 296 296 296 295 296 296 295 295 295 295 295 294 294 294 295 295 295 295 295 295 295 294 294 294 294 294 294 294 294 294 293 293 292 292 292 292 292 292 291
305 305 305 305 304 304 304 304 305 305 305 306 306 305 305 305 304 303 302 302 302 301 301 301 301 301 301 301 301 301 301 300 300 300 300 300 300 300 300 300 300 300 300 299 298 297 297 297 297 297 296 296 296 296 296 295 295 295 295 294 293 294 294 294 294 294 294 294 295 294 294 294 294 294 294 294 294 294 294 294 293 293 293 293 293 292 292
Wind_Speed
1 2 4 2 2 3 4 8 11 12 10 7 4 3 5 4 4 2 5 11 9 9 14 13 10 9 9 10 11 10 11 11 11 11 11 10 10 10 10 9 8 8 8 8 10 12 13 15 16 17 19 21 20 20 20 21 23 24 25 25 27 28 28 28 29 28 26 24 23 23 22 20 19 18 18 19 20 21 21 22 22 21 19 18 18 18 18
1 2 1 2 1 0 2 8 12 12 9 8 6 5 7 6 6 4 5 10 5 6 13 13 11 12 11 11 11 11 12 12 11 12 12 11 11 12 13 12 13 14 14 14 12 11 11 12 12 12 13 15 18 19 20 21 22 23 24 25 26 27 27 27 28 28 27 26 26 25 23 22 20 19 18 19 20 21 21 22 22 21 20 19 19 20 19
2 3 3 2 3 3 4 7 12 12 9 8 8 6 7 7 6 2 7 9 6 7 13 15 14 14 13 13 12 12 12 11 11 12 12 12 13 14 16 17 18 18 18 17 15 15 15 14 13 12 10 9 11 14 16 18 19 20 22 24 26 27 27 26 25 25 25 25 27 25 24 24 23 21 20 19 20 21 21 21 21 20 19 19 19 19 20
4 1 4 4 4 6 6 3 8 10 8 6 6 5 6 6 4 2 7 7 5 9 15 17 15 15 15 14 13 13 12 11 11 12 13 14 14 16 20 22 22 21 19 18 18 17 17 17 16 15 13 12 10 10 11 12 13 14 16 18 20 22 24 25 25 25 24 24 25 25 24 26 26 24 22 20 20 21 22 21 20 19 19 18 18 19 20
3 1 3 3 3 5 6 1 4 6 6 4 2 3 5 5 4 1 1 1 5 12 14 14 14 14 14 13 13 13 13 13 12 12 14 15 16 18 22 23 23 22 20 18 18 18 17 16 16 16 16 15 13 11 11 10 11 13 14 14 15 16 17 19 21 23 23 24 25 25 25 26 26 24 22 21 20 20 20 20 19 19 19 19 19 19 20
2 2 3 0 2 2 1 1 2 4 7 6 4 3 3 3 2 1 1 2 7 12 14 13 14 13 12 11 12 12 15 16 15 14 17 20 20 22 24 23 23 23 22 21 20 20 19 18 17 17 17 17 16 14 12 11 12 14 14 13 14 16 17 17 17 18 20 22 24 25 26 27 26 25 23 22 20 20 20 20 20 19 19 20 20 20 20
1 1 0 4 5 2 1 1 1 3 8 8 6 4 2 4 2 1 3 7 10 12 14 16 16 15 13 12 12 13 16 19 20 22 25 26 26 27 27 25 24 24 24 23 22 21 21 19 18 18 17 17 17 15 14 13 14 14 13 13 12 13 14 15 16 16 17 18 20 21 23 25 26 25 24 23 22 21 21 22 21 20 21 21 21 20 20
0 2 3 4 2 2 1 1 1 1 2 4 4 3 3 5 3 1 6 10 11 12 15 17 18 19 19 16 12 12 15 19 23 26 27 27 27 28 28 27 26 25 24 24 22 22 21 19 19 19 18 16 16 15 14 14 14 14 13 12 11 10 10 10 11 12 13 14 14 15 16 18 21 23 23 23 23 22 22 22 21 20 21 22 22 21 22
0 1 2 1 0 0 1 1 2 3 3 2 1 1 2 2 1 4 10 10 11 14 16 17 20 22 19 13 10 9 13 18 23 26 27 27 28 28 27 26 25 24 23 23 22 21 21 20 19 18 17 16 16 16 15 14 15 14 13 13 12 10 9 8 7 6 5 6 8 10 14 18 19 19 20 20 20 20 21 21 20 20 21 21 21 21 21
0 1 2 2 2 3 2 2 3 5 7 6 3 2 1 1 3 11 15 12 12 16 17 18 21 20 13 7 5 7 11 16 21 24 26 26 26 26 26 25 24 23 23 22 21 21 21 20 18 16 15 15 15 15 15 14 14 14 15 15 14 13 11 10 8 7 6 4 3 6 10 15 16 16 16 15 16 16 17 18 18 18 18 18 18 18 18
0 2 2 2 2 2 2 3 6 9 10 6 3 3 0 3 8 14 18 16 15 17 18 20 20 13 7 4 3 6 11 16 20 22 23 24 24 24 24 23 22 22 21 19 19 19 20 20 18 14 12 12 14 14 14 14 14 15 16 15 14 13 12 11 10 10 9 8 6 5 5 7 10 12 12 12 12 13 13 13 14 15 15 15 15 16 15
1 1 1 1 0 2 3 6 11 12 8 3 2 3 1 4 11 15 19 21 20 19 19 18 14 9 8 8 8 10 15 19 20 20 21 22 22 23 22 21 20 19 17 16 16 16 17 17 15 12 10 10 11 12 11 11 12 14 14 13 12 11 11 10 9 9 8 9 9 9 8 6 5 8 9 9 10 10 9 9 10 11 13 13 13 14 14
1 1 1 1 1 2 4 10 14 11 5 2 3 1 3 2 11 15 19 22 25 27 25 16 9 13 20 22 20 19 19 21 22 22 22 21 21 21 20 18 17 15 14 13 14 14 14 13 12 11 9 7 9 9 8 7 9 11 11 10 9 8 8 7 7 7 7 8 9 9 10 10 7 4 2 3 7 8 7 6 5 6 7 9 11 12 13
1 1 0 1 2 2 6 13 13 8 2 2 1 6 9 5 11 13 15 20 23 26 24 16 14 23 29 28 25 22 21 23 24 23 23 22 21 19 17 15 13 12 11 11 12 12 12 11 10 9 8 7 7 6 4 5 7 8 7 7 6 5 5 5 5 5 5 6 6 6 7 7 7 7 5 3 3 5 4 3 3 3 4 5 6 7 8
0 0 0 1 2 2 9 13 8 5 4 3 6 12 12 4 8 11 10 16 20 19 18 19 24 30 33 31 28 24 23 24 24 22 22 21 19 18 16 14 11 9 9 10 11 11 11 11 9 8 7 6 5 5 4 4 4 4 5 4 4 4 3 3 3 3 3 3 3 3 3 3 3 4 3 3 4 4 2 2 1 2 2 2 2 4 4
1 0 1 2 1 4 9 8 3 3 5 7 9 11 10 4 6 10 8 12 19 18 18 24 30 34 34 33 31 28 27 26 26 24 22 19 17 15 13 12 10 8 8 9 10 11 11 10 9 7 6 5 4 3 3 3 3 2 2 2 2 2 1 2 2 2 2 2 2 2 2 2 1 1 2 2 2 2 2 2 2 2 2 1 1 2 3
1 2 2 3 4 7 8 4 2 5 6 7 9 8 6 3 6 10 9 13 18 18 20 26 31 34 35 33 30 29 29 27 27 25 22 19 17 14 12 10 8 7 7 9 10 10 9 9 8 6 5 4 4 3 2 2 1 2 2 2 1 1 0 0 1 2 2 3 3 3 3 3 3 3 3 2 3 3 3 3 3 3 3 2 2 1 1
1 1 2 3 4 6 7 5 4 7 8 7 8 7 5 1 6 10 12 16 18 18 21 25 28 31 33 31 29 29 28 27 26 23 21 19 15 13 11 8 6 5 5 7 9 9 9 8 8 7 6 4 4 4 3 2 2 1 2 2 2 2 2 1 1 2 2 3 3 4 4 4 5 5 5 5 5 5 5 5 5 5 6 6 5 4 4
1 1 1 2 3 6 9 7 6 8 10 9 8 9 8 3 4 9 12 15 16 16 20 26 29 31 31 30 30 30 28 26 26 24 21 18 14 10 8 7 5 4 4 5 7 8 8 8 8 8 6 5 4 3 3 4 4 3 3 2 2 3 3 2 2 2 3 3 4 4 5 5 5 6 7 7 7 7 7 7 8 8 8 8 7 6 6
1 1 1 1 2 5 9 9 8 10 12 12 10 9 9 7 2 7 11 12 13 14 18 24 28 29 27 26 28 30 29 27 25 24 21 17 13 10 8 6 5 4 4 5 6 7 7 8 8 8 7 6 4 3 3 2 3 3 3 3 3 3 3 4 4 4 4 4 4 5 6 6 7 7 7 8 8 9 9 9 9 9 10 9 9 8 8
2 1 1 2 1 3 7 9 9 9 11 12 11 9 9 8 4 5 8 10 11 14 18 21 21 19 18 22 26 28 30 29 25 22 19 16 14 12 10 8 5 3 4 5 7 7 7 8 8 7 7 6 5 4 3 2 2 2 3 3 3 3 3 3 4 4 5 5 5 6 6 7 8 9 9 10 10 10 11 12 12 12 12 11 11 11 11
3 0 1 2 1 1 4 8 9 9 9 9 9 9 10 8 5 3 6 8 10 13 16 19 19 17 19 26 30 27 27 29 25 19 16 15 14 12 10 8 5 3 3 4 7 8 8 8 8 7 6 5 4 4 4 3 3 3 2 3 3 3 3 3 3 4 4 5 5 6 6 7 7 9 10 11 11 11 12 13 14 14 14 14 14 13 12
0 2 3 3 2 2 4 6 8 8 8 8 8 9 10 10 8 5 2 7 10 11 13 16 19 19 19 24 28 25 25 28 24 19 18 17 13 12 11 8 4 2 1 4 6 7 8 8 7 6 5 4 4 4 3 4 4 4 4 4 4 3 3 3 4 4 4 5 5 5 6 6 6 6 7 9 11 12 12 13 14 14 15 16 17 17 16
2 3 4 4 3 2 3 3 4 5 5 6 7 7 8 8 8 8 5 1 5 8 9 12 15 16 18 22 24 23 25 27 23 20 21 18 14 13 12 9 6 5 2 3 4 6 7 7 7 6 5 4 4 4 4 4 4 5 5 6 5 5 5 5 5 5 4 5 5 5 5 6 6 5 5 5 7 9 10 11 12 13 14 15 16 17 18
3 3 3 3 2 2 1 1 3 3 3 4 4 5 5 4 4 5 5 5 4 4 6 8 12 15 18 22 22 23 25 26 24 23 22 19 16 15 14 12 10 8 5 2 3 4 6 6 6 6 5 5 5 4 4 5 5 5 6 6 7 7 7 7 7 6 6 6 6 5 5 5 5 5 5 5 5 6 7 8 9 10 12 13 13 15 17
3 3 2 1 1 1 2 2 2 2 3 3 4 5 6 5 5 5 5 5 6 5 5 5 9 13 17 19 21 23 26 26 24 24 23 21 19 18 17 15 12 9 6 4 2 2 4 5 6 6 5 5 5 5 5 6 6 6 6 6 6 7 8 8 9 9 8 7 7 7 7 6 6 5 5 6 6 6 6 6 7 7 8 9 11 12 14
4 4 3 3 3 3 4 3 3 3 4 4 4 5 6 7 7 8 8 8 7 5 5 6 6 8 13 17 21 25 28 27 25 24 24 23 22 21 19 16 13 10 8 6 3 2 2 4 5 5 5 5 5 5 5 6 6 7 6 6 6 6 7 8 9 9 9 9 8 8 8 7 7 6 6 6 6 5 5 6 6 6 7 7 8 9 11
5 5 5 5 4 4 5 5 5 6 6 6 6 7 7 8 8 8 9 9 9 9 9 8 7 7 8 11 17 23 27 28 27 26 25 24 23 21 19 16 13 12 10 8 5 4 2 2 3 4 4 4 4 5 5 6 7 7 7 7 7 7 7 7 7 7 8 9 9 9 9 8 8 7 7 6 5 4 4 6 7 8 8 8 8 8 9
8 7 7 6 6 5 6 6 7 7 8 8 8 8 8 9 9 9 8 9 10 12 12 13 13 13 13 12 13 16 20 23 25 26 27 27 25 22 19 17 15 13 12 10 8 6 4 2 2 2 3 3 4 5 6 6 7 8 9 9 9 9 8 7 6 6 7 8 9 9 9 8 7 7 6 5 5 4 5 6 7 8 9 9 9 9 9
10 9 8 7 7 7 7 7 7 8 8 9 9 9 9 9 8 9 9 9 9 11 12 13 15 17 18 18 18 17 17 19 20 23 26 27 26 23 20 19 17 16 15 12 10 8 6 4 2 1 1 2 4 5 7 8 9 10 10 10 10 10 10 9 8 8 7 8 8 8 6 5 5 4 4 4 5 7 8 7 7 6 7 8 8 9 9
10 10 9 9 8 8 8 7 7 7 7 8 8 8 8 9 8 8 8 9 9 10 11 12 14 16 17 18 18 17 18 19 19 20 23 25 25 23 22 22 21 19 17 14 11 10 8 6 4 3 2 2 4 6 7 9 11 11 12 12 12 12 12 11 10 9 8 8 7 6 4 3 3 3 3 5 7 9 8 7 5 5 5 6 6 7 7
9 9 9 9 9 8 7 7 6 6 6 7 8 8 9 9 9 9 9 9 9 10 10 12 13 14 16 17 17 17 17 19 20 22 24 26 26 25 25 25 23 19 16 14 12 11 9 7 5 4 4 4 5 7 8 10 11 12 13 13 13 13 13 12 11 10 9 8 7 6 5 4 4 4 5 6 7 6 5 5 5 5 6 6 6 6 6
10 9 9 9 9 8 7 7 6 7 8 8 9 10 10 10 11 11 11 11 11 12 12 12 13 14 15 17 18 18 18 19 21 23 25 27 27 28 29 28 24 20 16 15 13 12 10 8 6 6 5 6 7 8 9 10 12 12 13 14 13 11 10 11 11 10 8 6 5 4 4 4 3 4 4 5 4 4 4 5 5 5 6 7 7 8 8
11 10 9 9 9 9 8 9 9 10 11 11 12 12 12 12 13 13 13 14 14 13 13 14 14 15 16 16 17 18 19 20 21 22 22 24 26 27 29 28 25 21 18 16 14 12 10 8 7 7 6 7 8 9 10 12 12 12 13 14 13 10 8 8 8 7 5 4 3 2 2 2 2 2 3 3 3 3 4 5 5 6 7 7 7 8 9
11 10 9 9 10 10 11 12 13 14 14 15 15 16 16 15 15 16 16 16 16 15 15 15 15 15 16 17 18 18 19 20 20 19 19 22 25 27 29 29 26 22 18 15 13 11 10 9 8 7 7 8 9 10 12 13 14 13 14 15 13 10 7 6 5 4 3 2 2 2 1 1 1 2 2 3 3 4 4 5 6 6 7 7 7 7 9
10 10 10 11 12 13 14 15 16 17 18 18 18 18 18 18 17 18 18 18 18 17 16 15 15 16 16 17 18 18 18 17 17 17 18 20 23 26 29 30 26 21 17 14 13 12 10 10 8 8 8 9 9 9 11 14 16 15 14 14 12 9 7 5 3 2 2 1 1 1 2 2 3 4 4 4 4 4 4 5 6 6 6 6 7 8 10
11 11 13 14 15 16 18 19 19 20 21 21 21 21 21 21 20 19 19 19 19 18 17 16 15 15 15 16 16 16 15 14 14 15 17 20 22 26 29 29 25 21 17 15 14 12 11 10 9 8 9 9 9 10 13 15 16 16 14 12 10 8 5 2 1 1 1 1 2 1 2 3 3 4 4 3 3 3 4 4 5 5 6 7 9 10 10
13 14 16 17 18 20 21 22 22 23 24 24 25 24 24 23 22 21 21 20 19 18 18 17 15 14 14 13 13 13 12 12 13 15 17 20 23 27 28 26 23 20 18 15 13 12 10 9 9 9 10 10 11 13 15 15 14 13 12 10 8 5 3 2 2 2 1 1 1 2 2 3 3 3 2 2 2 2 3 4 4 5 6 6 7 7 7
14 16 18 19 21 22 23 23 24 24 24 24 25 25 24 24 23 23 23 22 20 18 17 17 15 13 12 11 10 10 11 12 14 16 18 21 26 27 26 23 19 17 15 12 11 10 9 9 9 10 10 11 12 13 14 14 12 10 9 7 4 2 2 2 2 2 2 2 2 3 3 4 4 3 2 2 2 3 4 5 6 6 5 5 5 5 6
16 17 19 19 20 21 21 21 21 21 20 21 22 22 22 22 23 23 23 21 19 18 17 16 14 12 11 9 9 9 11 12 14 17 21 25 27 25 22 19 16 14 12 11 10 9 9 9 9 10 10 10 11 12 12 11 9 7 5 4 2 2 1 2 3 3 3 3 3 4 4 4 3 3 2 2 3 4 4 5 5 4 4 4 5 6 6
15 16 17 18 18 18 18 18 18 18 17 17 18 20 20 21 21 22 22 20 18 17 15 14 12 11 10 10 9 10 11 13 17 21 25 26 24 21 18 16 14 13 11 10 9 9 8 8 8 8 8 8 9 10 9 7 5 4 3 2 2 1 1 1 2 2 2 3 3 3 2 2 2 2 2 3 4 4 4 4 4 3 4 4 5 6 7
14 15 16 17 17 16 16 15 15 16 16 15 15 16 18 20 20 20 19 18 16 14 13 12 11 10 10 10 11 12 15 18 21 22 21 19 16 13 12 12 12 11 10 9 8 7 6 7 7 7 6 5 5 5 6 4 4 3 3 2 2 1 1 1 1 1 1 2 2 1 1 1 2 3 3 3 4 5 4 4 4 4 4 5 6 7 7
14 15 15 15 15 14 14 14 14 15 15 15 14 15 16 17 18 18 17 16 15 13 11 11 11 11 11 12 14 17 20 22 22 21 17 14 10 9 9 10 10 10 9 7 6 6 5 5 4 4 3 2 3 4 5 5 4 4 3 3 2 1 1 1 1 1 1 1 1 1 1 1 2 3 4 4 5 4 4 4 4 4 5 6 7 7 7
13 12 12 12 12 12 12 13 13 13 13 13 13 13 14 14 15 15 14 14 13 12 11 12 12 12 12 14 17 20 22 22 21 18 15 13 12 10 9 9 9 9 8 7 6 6 5 3 2 2 2 3 4 5 5 5 4 4 4 3 2 1 1 1 1 1 2 1 1 1 2 2 2 3 4 4 4 4 4 4 4 4 5 6 6 6 7
10 8 8 9 9 9 10 12 12 12 12 11 11 11 11 12 12 12 11 11 12 12 12 12 12 14 15 15 16 17 18 18 17 14 13 13 13 13 11 10 9 9 9 8 7 6 5 4 4 4 4 4 5 5 6 5 5 5 4 3 2 2 2 1 1 1 2 2 2 2 2 2 3 3 3 3 4 4 4 4 5 5 6 6 6 7 7
8 7 6 7 7 8 9 10 11 10 9 8 8 8 8 8 8 9 10 11 11 11 11 12 12 13 14 14 13 13 14 14 13 11 9 9 10 11 12 11 10 9 9 8 6 5 5 6 5 5 4 4 5 6 6 5 5 4 4 3 3 3 2 2 1 2 3 3 3 3 3 3 4 4 4 4 5 5 5 5 6 6 6 6 6 7 7
8 6 5 5 6 7 7 7 6 6 5 4 4 5 5 5 6 7 9 11 11 10 9 11 13 12 11 11 11 12 14 15 14 12 10 9 10 11 12 12 11 11 10 8 6 6 6 6 5 4 3 3 4 5 5 4 4 5 5 4 4 4 3 2 2 3 3 3 4 3 3 3 5 5 5 6 7 6 5 5 6 6 6 6 6 7 7
9 7 6 6 6 6 6 5 4 3 2 0 0 2 3 2 2 2 4 7 10 9 9 12 13 12 10 9 9 10 13 15 16 16 15 15 14 14 13 12 11 11 9 8 7 7 7 6 5 4 3 3 4 4 4 4 4 5 5 4 4 5 5 4 3 3 3 3 4 4 3 4 6 6 5 6 6 6 5 5 5 5 5 6 6 7 7
10 9 7 6 5 5 4 5 4 3 2 3 3 1 2 0 4 5 7 10 13 13 13 13 13 13 13 13 13 12 12 13 14 17 18 17 15 13 12 12 12 11 8 7 7 7 8 7 5 4 4 4 4 4 4 4 4 4 4 4 5 5 5 5 4 4 3 3 5 5 5 5 6 6 6 6 6 5 4 4 4 5 6 6 6 6 7
10 10 10 8 6 5 5 6 6 4 4 5 6 5 3 4 7 9 11 13 15 16 16 16 17 18 18 17 16 14 12 12 13 16 17 17 14 12 11 12 12 11 9 7 6 7 7 7 6 6 6 5 5 5 5 5 4 4 5 5 5 5 5 5 5 5 5 5 5 6 6 6 6 6 7 7 8 7 6 5 4 5 7 7 6 6 7
9 10 10 11 11 9 8 8 8 7 7 6 5 5 6 8 9 11 12 14 16 17 18 19 19 20 19 19 17 16 14 14 14 15 15 15 13 11 10 10 10 9 8 8 7 6 6 6 6 7 7 7 6 5 6 6 5 5 6 6 5 5 6 6 6 6 6 5 5 5 6 6 6 7 8 9 9 9 8 7 6 7 8 9 9 9 9
8 8 9 10 11 11 10 9 9 9 9 6 5 6 8 9 11 12 14 16 17 19 19 20 19 18 17 17 16 15 13 13 13 14 14 13 12 10 9 8 8 7 6 7 7 6 6 6 6 6 6 6 6 6 7 6 5 4 6 7 7 6 6 7 6 6 6 5 4 5 6 6 6 7 8 10 11 11 11 11 10 10 10 11 12 12 12
Wind_Direction
69 161 175 236 326 86 67 27 21 17 13 17 9 334 345 330 268 263 162 169 176 174 173 170 164 160 150 138 134 130 132 133 127 121 113 107 106 110 119 129 132 126 121 140 176 195 204 210 212 212 215 218 220 223 224 225 230 234 236 238 240 240 242 245 247 246 245 248 253 254 252 247 242 243 244 242 242 243 243 242 241 241 242 244 247 248 247
333 340 253 229 255 149 46 30 25 20 25 33 27 11 2 343 316 314 167 160 144 149 162 156 150 152 143 135 133 129 131 134 128 120 111 103 103 109 116 119 119 121 123 130 141 150 162 176 185 189 197 207 214 220 223 224 227 230 231 234 237 238 238 240 245 247 245 246 249 250 250 247 242 241 243 242 240 241 243 243 243 242 242 244 246 248 248
229 342 338 260 252 292 329 20 25 19 23 32 27 17 6 351 331 294 158 145 121 130 142 138 141 145 139 139 138 132 134 138 130 117 107 105 104 107 113 113 112 117 122 129 134 132 130 136 143 149 155 172 194 211 219 221 221 224 229 231 235 238 238 237 240 244 244 244 244 242 243 245 240 237 238 239 238 239 240 242 243 243 244 246 248 250 251
209 4 347 302 302 305 299 359 38 27 22 26 26 23 11 351 333 171 154 152 145 142 139 137 140 142 141 144 141 136 140 144 134 117 108 110 108 106 110 110 110 113 115 119 123 122 122 124 125 128 130 133 146 164 182 195 204 211 219 225 230 236 239 239 240 241 240 238 236 234 237 240 238 235 234 235 234 234 235 238 240 241 244 247 249 251 252
191 72 348 333 359 315 285 248 81 57 48 44 31 33 25 5 339 258 190 137 143 146 142 138 141 145 147 147 143 142 144 141 131 118 113 113 110 110 113 111 110 110 108 109 112 113 114 117 118 123 127 129 131 139 153 170 182 190 200 211 216 221 226 230 233 235 237 236 233 232 233 236 237 235 235 235 234 232 234 237 239 240 242 245 247 248 250
170 46 353 26 157 246 268 131 127 105 93 81 65 53 23 8 355 282 306 90 137 145 141 138 141 140 135 133 136 141 144 140 132 124 123 121 118 116 114 111 110 109 106 104 103 102 103 105 109 115 119 119 121 128 140 151 158 168 181 192 203 211 216 217 218 222 229 234 233 232 231 233 235 233 232 232 231 230 233 235 236 239 242 244 246 247 249
115 79 74 187 194 226 73 143 218 108 104 101 98 97 45 18 8 240 178 148 146 144 138 133 128 120 115 117 126 138 145 144 139 134 128 126 124 120 116 113 111 108 106 104 101 98 98 98 101 104 106 110 116 120 125 129 131 140 151 159 171 187 196 203 208 212 217 224 230 235 236 234 232 230 229 230 229 229 231 233 235 239 242 244 245 246 248
114 165 185 192 215 341 25 159 270 15 84 103 113 116 67 32 350 245 150 142 136 122 117 117 115 117 121 116 113 130 142 141 140 138 131 127 126 122 118 115 112 108 105 103 100 99 96 93 91 92 95 102 109 112 113 110 110 116 126 132 136 145 156 170 188 197 201 205 212 222 225 222 222 224 226 228 228 228 230 233 237 242 244 244 244 244 244
322 215 198 199 254 105 112 68 10 331 320 347 11 2 65 39 306 145 128 123 117 111 110 114 117 120 117 101 86 112 135 138 140 140 136 132 128 124 119 116 113 109 105 101 99 97 93 90 87 85 87 91 97 103 106 103 102 106 110 110 107 110 116 124 141 156 173 191 196 192 188 190 196 206 215 219 220 221 225 229 235 240 243 244 242 240 240
347 258 208 219 216 161 113 8 346 335 321 305 285 285 86 134 175 144 130 119 119 124 124 125 125 122 115 96 75 102 126 137 140 139 136 133 129 125 123 120 116 112 107 102 100 96 92 89 87 84 85 86 88 93 95 97 100 101 101 99 96 98 101 103 108 108 106 123 164 180 181 179 178 183 194 204 207 211 218 226 232 236 241 245 244 240 239
132 222 212 219 220 116 54 334 322 330 328 314 276 276 257 171 173 150 135 133 137 137 138 140 140 134 124 119 108 113 129 139 141 139 136 135 134 131 127 124 119 113 109 104 100 94 90 89 87 86 87 87 88 91 94 98 100 97 96 95 90 90 91 90 94 98 93 93 102 123 161 177 181 182 181 182 188 196 202 211 221 229 237 246 249 246 243
111 220 216 178 157 38 12 321 319 325 329 324 239 266 24 153 174 160 145 144 144 142 149 155 153 145 138 142 147 144 143 146 147 146 143 140 139 135 131 126 119 113 110 103 94 86 81 81 83 83 82 81 82 87 93 99 98 94 93 93 88 84 83 81 86 91 86 81 82 84 85 97 158 191 193 186 184 187 188 195 208 218 226 233 237 240 240
50 302 182 140 55 22 337 319 322 325 312 233 205 270 8 197 191 172 156 155 152 153 162 172 162 145 145 147 152 153 154 155 154 152 149 146 142 137 132 127 121 115 106 93 82 75 69 67 68 65 59 57 64 74 85 92 91 91 90 89 86 81 77 76 77 78 77 75 74 76 75 75 81 101 172 207 195 198 208 213 213 220 227 229 231 236 239
13 339 12 90 113 76 335 325 329 341 324 224 281 336 330 273 208 184 166 164 164 163 167 169 158 150 148 148 151 157 165 167 161 155 152 150 148 144 138 131 126 117 101 85 75 71 65 58 53 47 36 30 39 47 57 72 83 90 91 88 88 82 76 75 74 69 69 68 65 65 67 65 65 69 66 73 138 175 203 220 224 243 248 240 242 251 256
354 197 352 32 121 70 347 337 344 16 7 326 316 319 322 300 201 195 178 170 172 170 164 163 160 154 151 151 154 161 172 176 171 165 161 156 151 147 141 134 126 110 97 89 78 70 62 51 44 38 26 23 28 23 19 38 61 79 85 84 88 89 89 93 90 89 91 90 84 76 77 72 66 78 90 84 89 105 106 96 141 212 229 239 283 301 299
310 4 64 43 10 337 343 343 353 4 337 319 313 311 319 326 190 190 181 175 179 175 167 167 165 160 157 159 162 167 175 178 176 173 172 168 159 150 143 131 116 99 91 86 73 62 55 45 40 34 22 18 19 17 23 30 26 31 45 59 67 75 97 122 134 152 155 147 154 159 150 149 156 147 138 125 111 111 111 122 159 179 189 210 343 343 336
323 324 357 2 323 319 334 343 359 358 341 327 327 325 323 308 197 184 175 176 182 183 177 171 166 164 164 165 167 170 174 176 175 172 174 174 167 160 156 141 117 97 84 74 62 52 46 39 36 36 29 15 2 3 16 23 4 355 355 352 344 340 303 229 201 199 206 208 203 202 203 205 210 216 210 199 195 192 193 202 210 218 225 218 194 176 198
261 257 322 338 322 337 356 10 25 15 6 356 354 357 357 306 198 191 182 179 181 184 178 170 164 165 168 169 171 174 176 178 177 174 173 173 169 163 158 147 130 110 80 56 46 43 44 40 36 35 35 24 5 354 349 341 331 319 324 324 308 296 288 273 263 251 246 246 240 233 231 227 223 222 221 219 219 219 217 216 219 221 220 217 209 203 204
273 231 40 19 357 6 14 25 39 24 12 10 13 18 23 40 188 193 190 187 184 181 178 172 168 169 172 173 176 179 182 181 179 179 178 176 173 168 158 147 143 133 90 52 44 45 44 40 34 29 25 21 11 359 346 335 326 319 312 301 289 284 281 273 265 263 262 264 265 263 258 252 244 236 230 227 226 226 226 226 226 225 224 224 221 220 223
291 321 52 63 29 27 29 33 37 26 16 13 13 19 28 35 111 183 193 196 188 182 181 174 168 169 174 178 182 185 188 185 180 179 183 184 183 183 177 167 156 128 83 61 57 53 44 37 30 19 10 6 6 4 359 348 337 331 321 310 296 274 263 263 264 262 263 263 267 271 274 273 271 266 259 253 248 243 239 237 237 238 239 239 240 243 246
265 274 176 201 233 40 49 47 45 38 26 18 11 12 26 38 68 156 188 199 195 190 186 176 171 178 192 199 199 198 194 191 187 185 187 188 186 187 191 186 169 118 62 49 49 49 45 39 31 18 9 9 14 19 19 20 16 1 340 330 321 308 291 280 271 267 267 264 260 261 266 271 274 274 272 270 269 268 265 261 257 256 255 254 253 255 257
257 270 130 203 233 59 59 53 55 55 45 32 19 13 20 30 46 124 179 188 192 197 196 191 196 214 220 211 209 208 200 193 191 193 194 188 183 191 201 193 165 122 65 46 43 41 39 36 31 25 20 22 29 31 27 26 26 21 11 2 347 341 341 332 318 308 300 289 278 269 262 259 262 267 270 271 270 270 272 273 272 272 272 271 270 269 269
301 92 108 116 98 92 88 67 58 57 51 46 41 31 26 26 24 26 164 187 192 201 205 201 206 223 225 211 207 210 203 193 191 198 200 193 195 211 216 202 180 172 120 58 45 37 33 32 29 28 32 35 31 27 24 23 21 18 15 14 9 4 2 346 332 329 324 315 309 299 287 276 266 260 261 266 269 270 270 271 272 272 273 275 276 277 277
103 128 132 121 97 105 119 79 42 35 34 34 38 40 40 36 29 27 24 257 220 224 227 219 216 222 220 210 207 209 204 197 199 205 204 201 211 220 213 205 207 206 172 78 49 35 33 34 32 31 39 45 36 31 28 22 14 7 4 4 2 358 357 349 340 336 329 324 319 313 308 302 293 281 268 260 265 270 273 275 275 274 273 273 275 276 276
136 142 135 124 113 122 141 351 340 336 339 345 347 356 7 14 19 21 14 358 333 299 269 243 228 221 214 211 214 214 208 205 207 207 205 212 222 218 209 207 210 202 177 122 61 35 33 41 45 44 47 48 41 36 29 21 16 8 1 358 354 349 346 344 342 339 335 333 329 323 318 313 306 303 297 285 274 269 269 272 276 279 280 280 279 278 278
157 157 161 182 223 274 285 294 294 293 308 313 307 310 318 321 318 314 319 327 331 331 323 285 246 229 220 217 215 210 206 207 209 208 211 217 220 215 212 213 209 198 184 171 141 49 39 47 52 53 52 47 38 28 17 12 10 6 1 356 349 342 339 338 337 334 332 331 330 326 322 317 314 311 304 301 302 298 283 272 266 268 276 281 282 282 278
193 196 202 222 248 261 268 270 268 278 295 302 299 296 296 299 301 296 293 295 297 298 307 311 292 258 237 227 217 209 206 208 212 216 218 219 217 215 214 212 206 201 199 198 189 149 70 54 53 53 51 43 32 20 10 1 357 354 353 352 346 339 336 334 331 327 325 324 322 319 316 312 310 307 301 298 302 308 306 296 280 266 260 261 268 274 274
223 222 220 230 240 245 251 259 266 276 288 293 297 298 295 294 295 291 285 283 280 271 268 276 291 296 276 245 228 220 218 220 222 222 221 220 220 218 214 208 205 205 207 206 198 181 139 75 58 50 41 31 21 12 1 353 347 342 340 341 340 337 333 329 322 317 316 315 313 310 308 305 303 302 299 296 294 294 301 301 294 288 278 266 261 264 270
231 231 235 247 254 252 250 252 258 269 280 286 291 294 293 291 291 288 282 274 267 263 262 261 263 270 278 273 256 240 234 232 227 223 221 222 222 218 212 209 207 207 208 209 204 194 184 156 98 63 38 17 4 355 346 339 335 332 331 333 334 332 331 327 320 314 311 308 306 306 306 305 303 299 296 293 289 285 292 299 299 297 292 284 274 267 264
229 233 244 252 255 256 256 256 259 265 270 277 284 289 291 291 290 288 286 280 268 263 261 257 253 253 258 263 264 259 254 247 236 228 226 226 224 218 213 211 210 208 209 209 206 201 196 188 170 127 34 348 340 336 332 329 327 326 327 330 330 330 328 325 321 318 313 308 307 307 307 307 307 304 300 292 287 288 293 298 300 297 294 292 287 278 269
225 233 243 249 252 255 255 253 259 266 271 278 286 291 295 297 295 292 290 288 282 274 265 259 254 250 249 251 254 255 254 249 243 238 236 233 229 224 221 221 221 220 217 213 208 205 202 197 194 200 231 287 313 320 320 321 321 321 324 328 330 327 323 320 320 320 319 315 310 304 301 300 298 298 292 290 295 298 297 296 302 304 302 299 295 291 292
223 229 239 244 245 246 246 247 253 265 275 284 292 296 299 300 300 298 296 294 291 286 278 269 263 258 253 251 250 248 244 240 238 240 241 239 236 232 228 226 226 226 221 214 209 206 204 206 213 225 244 271 296 306 310 312 313 315 321 327 329 325 319 318 320 320 318 313 305 297 295 291 285 285 287 290 298 306 303 299 304 304 301 304 301 293 296
221 220 227 233 232 232 241 250 259 270 279 286 291 293 295 298 299 299 300 300 298 294 290 283 275 266 258 253 251 248 244 240 237 237 240 242 241 236 227 222 219 216 213 210 208 206 208 215 226 240 257 275 290 299 303 306 308 312 319 325 326 323 318 319 323 323 318 312 304 299 299 293 284 287 293 296 301 303 293 295 304 302 298 301 299 292 291
228 225 227 231 232 236 248 261 270 279 284 287 290 290 290 290 291 292 293 294 294 293 290 286 280 272 264 257 252 249 246 244 241 240 241 243 240 230 219 212 210 208 206 206 206 206 212 222 232 246 265 280 290 296 299 300 304 311 319 323 323 321 318 320 324 325 320 313 311 317 321 321 314 306 299 292 289 280 274 284 298 302 301 301 302 303 304
226 225 229 237 244 251 261 268 275 279 282 284 286 288 288 286 285 286 286 287 288 288 286 282 279 275 268 260 252 248 245 244 245 246 245 243 237 225 213 207 204 201 201 202 204 208 215 225 236 252 269 281 290 296 297 298 304 313 320 321 320 318 315 315 318 322 319 316 320 325 323 312 298 285 272 271 277 277 280 290 298 298 299 303 304 301 293
227 234 244 252 258 262 265 268 270 272 274 276 278 280 281 282 283 282 282 283 284 284 284 281 277 272 266 260 254 248 245 244 246 246 245 242 235 222 212 206 203 202 203 206 209 214 222 231 243 259 272 282 293 299 296 297 305 315 320 320 317 313 309 307 306 304 301 298 298 301 295 282 266 256 254 262 273 280 286 293 295 293 295 296 288 278 274
243 250 255 258 260 261 263 265 268 269 269 271 272 272 272 275 278 280 280 280 281 282 282 281 276 268 261 256 251 246 244 245 245 243 241 236 226 214 207 205 205 207 210 212 214 219 229 241 255 268 276 284 293 294 290 294 306 315 318 314 309 302 294 284 273 273 279 286 289 293 295 290 284 279 276 276 284 292 295 296 296 294 293 288 275 264 268
253 258 261 264 265 266 267 268 269 269 269 268 268 268 268 269 272 273 273 274 278 281 280 277 272 263 254 249 245 243 244 244 241 238 235 225 212 203 200 201 202 205 209 214 219 226 236 251 265 273 278 286 291 290 289 294 304 310 309 305 300 287 264 251 266 272 270 277 291 297 295 294 300 310 317 316 317 309 293 286 288 289 292 296 291 281 283
266 270 273 274 274 274 275 274 272 271 270 269 268 267 265 264 264 264 266 269 274 277 275 271 265 256 248 244 241 240 241 238 232 227 219 206 197 194 194 194 197 203 207 213 220 230 242 257 266 271 278 285 288 288 291 297 303 303 301 300 295 277 257 261 272 273 272 270 275 282 288 294 302 314 325 327 321 302 279 274 281 290 298 308 317 318 315
281 282 283 283 282 283 282 281 279 276 273 270 267 264 263 261 260 259 260 262 267 271 271 265 257 250 246 243 238 235 234 229 219 210 199 190 187 188 188 187 190 198 206 214 224 236 248 259 267 275 284 289 289 291 296 302 303 301 301 301 296 284 275 274 273 275 278 281 282 287 295 302 308 315 319 312 305 303 299 296 300 308 318 320 321 319 314
292 293 293 292 293 293 291 287 282 278 275 272 267 262 260 259 259 259 257 257 261 268 268 260 252 247 245 241 235 228 218 207 198 193 189 185 185 187 188 188 191 199 208 217 226 236 248 260 271 280 288 290 293 302 310 315 315 315 317 315 312 304 283 278 282 287 292 298 302 307 310 315 317 319 319 311 309 316 325 326 326 331 332 329 324 320 316
304 302 299 295 295 295 294 289 282 277 274 273 271 267 262 258 257 258 256 251 252 259 260 251 243 240 238 232 221 205 192 186 184 184 184 184 185 188 192 194 197 203 209 215 225 236 249 260 268 276 281 286 301 323 340 353 356 356 355 349 338 337 338 325 329 337 344 345 339 340 345 336 325 325 327 331 336 342 341 335 336 341 337 328 322 318 316
310 305 299 294 293 294 293 289 283 279 276 273 271 270 266 261 258 256 250 243 243 248 248 238 227 222 223 220 208 192 184 182 182 182 182 182 187 195 200 200 200 202 207 214 222 231 239 243 247 261 284 332 14 13 11 12 11 9 10 10 4 359 358 2 1 11 24 28 26 19 15 356 337 338 343 348 353 354 348 341 344 343 333 324 322 322 321
320 314 305 298 296 295 295 293 290 285 281 278 273 267 263 260 256 248 241 240 242 242 237 228 218 210 210 210 201 192 186 185 185 186 186 186 186 187 187 188 191 197 205 212 211 210 209 201 175 136 76 56 47 30 13 8 10 11 10 13 23 25 15 14 28 31 31 37 26 4 3 3 351 350 354 358 360 358 352 347 344 336 328 326 325 323 322
331 321 312 307 303 300 300 300 296 290 285 281 275 266 260 258 253 242 237 243 246 237 226 220 213 206 204 203 200 197 195 192 189 190 192 190 183 175 169 171 180 189 192 190 184 176 167 152 132 109 80 56 44 29 13 8 14 18 16 19 28 25 18 33 58 29 19 19 8 1 4 6 3 1 2 1 0 359 356 351 346 341 336 335 332 326 322
336 323 322 323 317 311 307 303 298 293 289 282 276 270 266 262 253 237 228 231 234 230 220 212 207 203 199 194 189 189 188 181 174 173 181 186 181 172 166 164 163 163 160 156 153 152 146 135 121 103 77 51 37 25 14 13 24 32 33 33 33 27 26 34 26 13 14 13 8 7 11 14 12 14 12 4 1 2 360 353 351 351 348 343 338 334 330
358 348 344 342 333 326 326 326 321 312 300 285 277 277 270 253 244 240 230 220 217 212 199 187 182 181 179 176 176 176 171 161 152 149 153 156 155 155 154 149 142 138 137 137 143 149 145 132 118 104 81 47 27 20 20 31 43 47 47 47 44 37 34 31 21 19 24 24 19 19 20 14 13 15 12 3 2 4 0 353 351 353 352 347 344 342 339
17 10 1 354 347 341 345 360 9 359 345 4 323 301 288 254 207 206 204 190 182 172 163 160 159 158 153 153 162 173 174 166 157 152 151 149 146 146 145 140 132 130 132 133 134 134 132 127 118 104 79 49 30 28 35 47 53 53 54 54 48 39 35 32 28 25 26 25 24 28 24 14 13 15 11 3 2 3 358 351 350 349 348 348 348 345 343
28 26 20 10 358 351 3 25 38 42 61 88 93 57 323 90 133 140 151 158 158 155 150 145 142 138 137 140 146 156 165 166 159 152 147 144 143 142 139 130 119 115 121 133 137 132 126 122 115 99 81 69 59 51 47 48 52 54 52 47 41 35 30 26 24 24 25 24 24 24 20 14 14 16 13 7 3 359 352 347 346 345 346 348 348 345 344
34 34 35 34 34 39 50 57 62 69 78 88 95 97 98 120 140 151 157 157 155 153 150 146 141 139 141 143 145 145 147 152 152 147 143 141 141 141 137 128 114 103 103 117 132 134 127 119 106 93 86 82 73 58 48 44 45 46 42 35 30 25 20 15 14 15 19 23 24 21 18 17 20 20 16 10 6 2 355 348 342 339 340 342 343 345 346
34 37 40 43 46 54 64 67 69 72 75 81 96 113 125 135 143 152 159 163 161 157 154 151 148 146 146 146 144 142 143 148 153 152 149 147 145 143 139 133 123 109 101 103 111 122 129 122 105 91 83 77 65 52 45 42 39 35 29 23 17 12 11 10 8 8 13 21 26 24 21 22 23 18 11 8 8 8 5 1 356 354 353 353 354 355 355
29 34 39 41 42 47 54 62 68 71 71 77 104 137 151 153 149 148 153 160 160 155 151 150 149 148 149 149 148 145 145 149 156 160 161 159 156 151 145 141 138 130 117 107 103 107 114 112 101 87 76 67 57 48 42 38 33 25 18 15 13 13 14 11 5 1 5 14 23 28 28 27 23 15 9 9 10 10 9 8 6 6 5 4 2 2 2